sat.trackr.live / text

‹ back to catalog

STARLINK-34646

NORAD 64796 · 2025-150G

PAYLOAD ACTIVE UNKNOWN

§ Identity

Operator
Country
US
Launch date
2025-07-16
Launch site
AFWTR
Launch vehicle
Mass (kg)
RCS (m²)

Purposes: comms

External: N2YO · Heavens-Above · Gunter

§ Orbital elements

Epoch: 2026-09-20T13:19:47.291808Z

Period
96.11 min
Inclination
70.0031°
Eccentricity
0.0003466
Mean motion
14.98326802 rev/d
Perigee alt
569.7 km
Apogee alt
574.5 km
Semi-major
6,950.2 km
B*
-4.3669e-4
RAAN
3.2112°
Arg perigee
272.0968°
Mean anomaly
87.9794°
Rev number
6,659

§ Raw data

STARLINK-346461 64796U 25150G   26263.55540847 -.00005299  00000+0 -43669-3 0  99992 64796  70.0031   3.2112 0003466 272.0968  87.9794 14.98326802 66590

JSON: /api/v1/satellites/64796 · /tle

For live sub-satellite position, see the globe view (requires WebGL).

§ Visibility from observer

Set your observer location to see the next 7 days of passes ≥ 10°. The values pass through the URL so the page stays shareable.

No JS? Fill the form by hand. The geolocation button needs JavaScript.